GW7043 Weather Reports


time (UTC)temp
F
wind
direction
speed
knots
gust
knots
rain 1hr
in
rain 24hr
in
rain mn
in
humidity
%
barometer
mb
20260506091743 63 225 1.7 1.7 0.00 0.00 0.00 83 1013.3
20260506091240 63 144 0.0 1.7 0.00 0.00 0.00 83 1013.1
20260506090738 63 235 0.9 1.7 0.00 0.00 0.00 82 1013.2
20260506090235 63 206 0.0 0.9 0.00 0.00 0.00 82 1013.1
20260506085732 63 154 0.0 0.9 0.00 0.00 0.00 82 1013.1
20260506085228 63 182 0.0 1.7 0.00 0.00 0.00 82 1013.0
20260506084725 63 172 0.0 1.7 0.00 0.00 0.00 81 1013.1
20260506084221 63 168 0.9 1.7 0.00 0.00 0.00 81 1013.3
20260506083718 63 184 0.9 1.7 0.00 0.00 0.00 80 1013.3
20260506083216 63 235 1.7 1.7 0.00 0.00 0.00 80 1013.3
20260506082713 63 169 0.9 0.9 0.00 0.00 0.00 80 1013.1
20260506082208 63 225 1.7 1.7 0.00 0.00 0.00 79 1013.1
20260506081706 63 202 0.0 0.9 0.00 0.00 0.00 79 1013.1
20260506081204 63 191 0.0 1.7 0.00 0.00 0.00 79 1013.1
20260506080701 63 155 0.9 0.9 0.00 0.00 0.00 78 1013.0
20260506080158 62 188 0.9 1.7 0.00 0.00 0.00 78 1013.3
20260506073142 62 199 1.7 1.7 0.00 0.00 0.00 80 1013.5
20260506072638 62 211 0.0 1.7 0.00 0.00 0.00 79 1013.3
20260506072136 62 173 1.7 1.7 0.00 0.00 0.00 79 1013.4
20260506071633 62 145 0.9 1.7 0.00 0.00 0.00 78 1013.6
20260506071131 62 196 0.9 1.7 0.00 0.00 0.00 78 1013.6
20260506070628 63 196 0.0 2.6 0.00 0.00 0.00 77 1013.7
20260506070125 63 182 0.0 1.7 0.00 0.00 0.00 76 1013.9
20260506062103 65 189 0.9 1.7 0.00 0.00 0.00 72 1013.9
20260506061558 65 195 0.0 1.7 0.00 0.00 0.00 72 1014.0
20260506061056 65 185 1.7 9.6 0.00 0.00 0.00 70 1014.1
20260506060554 65 220 0.0 2.6 0.00 0.00 0.00 70 1014.4
20260506051023 65 193 1.7 2.6 0.00 0.00 0.00 64 1013.6
20260506050521 65 184 0.9 1.7 0.00 0.00 0.00 62 1013.6
20260506045011 66 158 0.9 1.7 0.00 0.00 0.00 61 1013.7
20260506044509 66 178 0.9 1.7 0.00 0.00 0.00 59 1013.6
20260506044006 66 172 0.9 1.7 0.00 0.00 0.00 59 1014.1
20260506043503 66 191 0.9 1.7 0.00 0.00 0.00 58 1014.1
20260506043001 66 205 1.7 2.6 0.00 0.00 0.00 58 1014.1
20260506042500 66 185 1.7 2.6 0.00 0.00 0.00 59 1014.1
20260506041957 66 210 1.7 2.6 0.00 0.00 0.00 58 1014.0
20260506041455 66 238 1.7 1.7 0.00 0.00 0.00 58 1014.0
20260506040952 66 210 1.7 1.7 0.00 0.00 0.00 58 1013.9
20260506040450 66 187 1.7 1.7 0.00 0.00 0.00 58 1013.7
20260506035946 66 212 0.9 1.7 0.00 0.00 0.00 57 1013.7
20260506035443 66 236 0.0 1.7 0.00 0.00 0.00 58 1013.7
20260506034939 66 179 1.7 1.7 0.00 0.00 0.00 57 1013.7
20260506034438 66 167 1.7 2.6 0.00 0.00 0.00 57 1013.9
20260506033934 66 167 1.7 1.7 0.00 0.00 0.00 57 1013.9
20260506033432 66 205 0.9 1.7 0.00 0.00 0.00 58 1014.0
20260506032928 66 213 1.7 2.6 0.00 0.00 0.00 58 1014.3
20260506032425 66 232 1.7 2.6 0.00 0.00 0.00 58 1014.2
20260506031922 66 185 0.9 1.7 0.00 0.00 0.00 56 1014.1
20260506031419 66 205 1.7 2.6 0.00 0.00 0.00 56 1013.9
20260506030917 66 216 0.9 1.7 0.00 0.00 0.00 57 1014.0
20260506030415 66 176 1.7 1.7 0.00 0.00 0.00 57 1013.7
20260506025911 66 192 0.9 1.7 0.00 0.00 0.00 59 1014.0
20260506025408 66 213 1.7 1.7 0.00 0.00 0.00 55 1014.0
20260506024905 66 190 0.9 1.7 0.00 0.00 0.00 56 1014.1
20260506024402 67 194 0.9 2.6 0.00 0.00 0.00 59 1014.0
20260506023857 67 204 0.0 1.7 0.00 0.00 0.00 57 1014.0
20260506023355 67 212 0.9 1.7 0.00 0.00 0.00 55 1014.1
20260506022851 67 236 0.0 0.9 0.00 0.00 0.00 54 1014.0
20260506022349 67 280 0.9 1.7 0.00 0.00 0.00 54 1014.0
20260506021847 67 190 0.9 1.7 0.00 0.00 0.00 53 1013.9
20260506021344 67 192 1.7 1.7 0.00 0.00 0.00 55 1013.9
20260506020840 67 217 1.7 1.7 0.00 0.00 0.00 54 1014.0
20260506020338 67 193 1.7 1.7 0.00 0.00 0.00 54 1014.0
20260506015836 68 196 0.9 1.7 0.00 0.00 0.00 54 1013.9
20260506015333 68 191 0.9 1.7 0.00 0.00 0.00 54 1013.9
20260506014829 68 207 1.7 1.7 0.00 0.00 0.00 53 1013.9
20260506014326 68 219 0.9 1.7 0.00 0.00 0.00 52 1013.6
20260506013823 68 219 0.9 1.7 0.00 0.00 0.00 52 1013.9
20260506013320 68 191 1.7 1.7 0.00 0.00 0.00 51 1013.9
20260506012817 69 231 1.7 1.7 0.00 0.00 0.00 51 1013.9
20260506012314 69 212 1.7 1.7 0.00 0.00 0.00 51 1013.7
20260506011811 69 214 0.9 1.7 0.00 0.00 0.00 49 1013.6
20260506011308 70 190 0.9 1.7 0.00 0.00 0.00 49 1013.6
20260506010805 71 193 0.9 1.7 0.00 0.00 0.00 49 1013.5
20260506010303 71 187 0.9 1.7 0.00 0.00 0.00 45 1013.4
20260506005800 72 182 1.7 1.7 0.00 0.00 0.00 46 1013.5
20260506005256 72 222 0.0 1.7 0.00 0.00 0.00 43 1013.6
20260506004752 73 221 1.7 1.7 0.00 0.00 0.00 41 1013.7
20260506004250 73 212 1.7 1.7 0.00 0.00 0.00 41 1013.6
20260506003746 73 171 1.7 1.7 0.00 0.00 0.00 40 1013.6
20260506003243 73 187 1.7 1.7 0.00 0.00 0.00 40 1014.0
20260506002739 73 174 2.6 3.5 0.00 0.00 0.00 39 1014.2
20260506002235 73 191 1.7 3.5 0.00 0.00 0.00 39 1014.0
20260506001731 74 180 1.7 8.7 0.00 0.00 0.00 39 1013.9
20260506001229 74 178 1.7 4.3 0.00 0.00 0.00 40 1013.7
20260506000725 74 188 2.6 5.2 0.00 0.00 0.00 38 1013.7
20260506000223 74 185 1.7 2.6 0.00 0.00 0.00 39 1014.0
20260505235720 74 187 2.6 3.5 0.00 0.00 0.00 39 1014.0
20260505235218 75 192 1.7 7.0 0.00 0.00 0.00 38 1013.7
20260505234714 75 194 2.6 5.2 0.00 0.00 0.00 38 1013.6
20260505234212 75 171 3.5 5.2 0.00 0.00 0.00 37 1013.9
20260505233708 75 195 4.3 4.3 0.00 0.00 0.00 37 1013.7
20260505233206 75 226 3.5 7.0 0.00 0.00 0.00 37 1013.9
20260505232703 75 227 6.1 7.0 0.00 0.00 0.00 37 1014.1
20260505232201 76 231 5.2 6.1 0.00 0.00 0.00 36 1013.7
20260505231657 76 180 6.1 7.0 0.00 0.00 0.00 36 1013.7
20260505231156 76 168 2.6 6.1 0.00 0.00 0.00 36 1013.7
20260505230654 76 233 4.3 5.2 0.00 0.00 0.00 37 1014.0
20260505230150 77 187 7.0 8.7 0.00 0.00 0.00 36 1013.6
20260505225646 76 258 2.6 6.1 0.00 0.00 0.00 37 1013.4
20260505225143 77 180 2.6 7.8 0.00 0.00 0.00 36 1013.5
20260505224639 77 179 6.1 7.8 0.00 0.00 0.00 35 1013.9
20260505224137 77 232 7.8 9.6 0.00 0.00 0.00 34 1013.4
20260505223635 77 220 4.3 10.4 0.00 0.00 0.00 34 1013.3
20260505223130 77 193 4.3 9.6 0.00 0.00 0.00 33 1013.5
20260505222626 78 206 6.1 8.7 0.00 0.00 0.00 34 1013.4
20260505222123 77 179 6.1 6.1 0.00 0.00 0.00 35 1013.5
20260505221620 78 193 6.1 10.4 0.00 0.00 0.00 34 1013.3
20260505221116 79 183 1.7 7.0 0.00 0.00 0.00 34 1013.4
20260505220614 78 162 3.5 4.3 0.00 0.00 0.00 35 1013.2
20260505220112 79 183 5.2 9.6 0.00 0.00 0.00 33 1013.2
20260505215609 79 200 7.8 10.4 0.00 0.00 0.00 34 1013.3
20260505215107 80 210 7.8 8.7 0.00 0.00 0.00 34 1013.1
20260505214605 79 193 2.6 7.0 0.00 0.00 0.00 35 1013.3
20260505214102 80 177 1.7 7.8 0.00 0.00 0.00 35 1013.5
20260505213559 80 231 1.7 5.2 0.00 0.00 0.00 34 1013.4
20260505213056 80 186 2.6 3.5 0.00 0.00 0.00 33 1013.5
20260505212552 80 230 3.5 7.0 0.00 0.00 0.00 33 1013.6
20260505212050 80 168 3.5 7.8 0.00 0.00 0.00 33 1013.5
20260505211546 80 146 3.5 5.2 0.00 0.00 0.00 32 1013.3
20260505211043 80 174 2.6 9.6 0.00 0.00 0.00 34 1013.6
20260505210539 80 154 2.6 7.8 0.00 0.00 0.00 35 1013.5
20260505210037 80 169 4.3 7.0 0.00 0.00 0.00 34 1013.5
20260505205535 81 211 7.0 8.7 0.00 0.00 0.00 33 1013.5
20260505205032 81 177 5.2 7.0 0.00 0.00 0.00 35 1013.6
20260505204529 81 232 2.6 4.3 0.00 0.00 0.00 35 1013.9
20260505204026 81 205 1.7 3.5 0.00 0.00 0.00 34 1013.7
20260505203523 80 168 1.7 5.2 0.00 0.00 0.00 36 1013.7
20260505203020 80 193 3.5 4.3 0.00 0.00 0.00 36 1014.1
20260505202516 80 189 4.3 7.0 0.00 0.00 0.00 36 1014.1
20260505202012 80 231 3.5 6.1 0.00 0.00 0.00 34 1014.2
20260505201510 79 201 3.5 7.8 0.00 0.00 0.00 36 1014.2
20260505201007 79 201 6.1 6.1 0.00 0.00 0.00 34 1014.3
20260505200505 79 204 1.7 3.5 0.00 0.00 0.00 35 1014.3
20260505200000 78 148 3.5 5.2 0.00 0.00 0.00 34 1014.3
20260505195457 79 166 3.5 10.4 0.00 0.00 0.00 36 1014.3
20260505194955 79 211 3.5 4.3 0.00 0.00 0.00 36 1014.3
20260505194452 78 162 2.6 7.0 0.00 0.00 0.00 35 1014.7
20260505193952 78 164 2.6 6.1 0.00 0.00 0.00 37 1014.6
20260505193450 78 172 3.5 5.2 0.00 0.00 0.00 37 1014.6
20260505192947 78 175 3.5 7.8 0.00 0.00 0.00 38 1014.8
20260505192446 78 255 3.5 7.8 0.00 0.00 0.00 36 1014.8
20260505191942 78 165 2.6 3.5 0.00 0.00 0.00 38 1014.8
20260505191441 77 178 3.5 7.0 0.00 0.00 0.00 38 1014.6
20260505190937 77 210 3.5 7.8 0.00 0.00 0.00 35 1014.7
20260505190433 78 211 4.3 7.8 0.00 0.00 0.00 36 1014.7
20260505185928 77 207 7.0 9.6 0.00 0.00 0.00 35 1014.9
20260505185426 77 268 5.2 12.2 0.00 0.00 0.00 38 1014.9
20260505184922 77 225 7.0 7.8 0.00 0.00 0.00 38 1015.3
20260505184419 77 232 5.2 7.8 0.00 0.00 0.00 41 1015.3
20260505183916 77 131 5.2 6.1 0.00 0.00 0.00 39 1015.3
20260505183413 76 197 4.3 10.4 0.00 0.00 0.00 41 1015.4
20260505182909 77 169 7.0 7.8 0.00 0.00 0.00 42 1015.3
20260505182406 76 207 7.8 7.8 0.00 0.00 0.00 40 1015.4
20260505181903 76 187 1.7 4.3 0.00 0.00 0.00 40 1015.6
20260505181400 77 203 4.3 10.4 0.00 0.00 0.00 40 1015.5
20260505180857 77 148 3.5 3.5 0.00 0.00 0.00 40 1015.5
20260505180353 76 148 3.5 5.2 0.00 0.00 0.00 43 1015.6
20260505175850 76 206 3.5 9.6 0.00 0.00 0.00 40 1015.8
20260505175346 76 206 5.2 8.7 0.00 0.00 0.00 39 1016.0
20260505174843 76 131 5.2 7.0 0.00 0.00 0.00 40 1016.1
20260505174341 76 215 1.7 7.0 0.00 0.00 0.00 41 1016.2
20260505173836 75 272 0.9 4.3 0.00 0.00 0.00 41 1016.2
20260505173333 76 219 2.6 5.2 0.00 0.00 0.00 42 1016.2
20260505172830 76 247 2.6 7.8 0.00 0.00 0.00 41 1016.1
20260505172328 75 162 2.6 6.1 0.00 0.00 0.00 43 1016.2
20260505171827 75 199 3.5 5.2 0.00 0.00 0.00 44 1016.1
20260505171324 75 157 3.5 5.2 0.00 0.00 0.00 43 1016.2
20260505170821 75 187 9.6 11.3 0.00 0.00 0.00 43 1016.2
20260505170318 75 358 2.6 5.2 0.00 0.00 0.00 43 1016.0
20260505165813 75 179 1.7 6.1 0.00 0.00 0.00 43 1016.1
20260505165309 74 153 2.6 5.2 0.00 0.00 0.00 45 1016.4
20260505164805 74 168 5.2 7.0 0.00 0.00 0.00 45 1016.3
20260505164302 74 182 0.9 7.8 0.00 0.00 0.00 44 1016.6
20260505163800 75 143 5.2 5.2 0.00 0.00 0.00 44 1016.3
20260505163259 74 149 3.5 6.1 0.00 0.00 0.00 46 1016.4
20260505162756 73 201 3.5 5.2 0.00 0.00 0.00 50 1016.2
20260505162252 73 268 6.1 11.3 0.00 0.00 0.00 46 1016.5
20260505161750 73 178 4.3 6.1 0.00 0.00 0.00 47 1016.5
20260505161247 73 237 5.2 8.7 0.00 0.00 0.00 47 1016.5
20260505160744 73 234 8.7 10.4 0.00 0.00 0.00 46 1016.3
20260505160242 73 249 4.3 9.6 0.00 0.00 0.00 47 1016.8
20260505153221 72 164 2.6 6.1 0.00 0.00 0.00 52 1016.8
20260505152718 72 202 7.0 7.8 0.00 0.00 0.00 49 1016.8
20260505152214 72 223 4.3 8.7 0.00 0.00 0.00 51 1017.0
20260505151709 72 183 1.7 4.3 0.00 0.00 0.00 52 1016.9
20260505151207 71 224 2.6 8.7 0.00 0.00 0.00 52 1016.9
20260505150702 71 147 4.3 5.2 0.00 0.00 0.00 52 1016.6
20260505150200 71 222 3.5 3.5 0.00 0.00 0.00 53 1016.6
20260505140633 65 207 2.6 4.3 0.00 0.00 0.00 65 1016.3
20260505140130 65 175 1.7 3.5 0.00 0.00 0.00 67 1016.2
20260505124543 54 286 0.0 0.9 0.00 0.00 0.00 90 1015.5
20260505124039 53 217 0.0 0.9 0.00 0.00 0.00 91 1015.5
20260505123536 53 218 0.0 0.9 0.00 0.00 0.00 91 1015.4
20260505123032 52 231 0.0 0.9 0.00 0.00 0.00 92 1015.4
20260505122530 51 331 0.0 0.0 0.00 0.00 0.00 92 1015.3
20260505122026 51 219 0.0 0.9 0.00 0.00 0.00 92 1015.4
20260505121523 51 167 0.9 0.9 0.00 0.00 0.00 92 1015.2
20260505121020 50 189 0.0 1.7 0.00 0.00 0.00 92 1015.5
20260505120516 50 184 0.9 1.7 0.00 0.00 0.00 91 1015.2
20260505120011 50 196 0.0 1.7 0.00 0.00 0.00 91 1015.2
20260505115506 50 238 0.9 1.7 0.00 0.00 0.00 91 1015.1
20260505115004 50 200 0.9 1.7 0.00 0.00 0.00 92 1015.1
20260505114501 50 205 0.9 1.7 0.00 0.00 0.00 92 1015.0
20260505113957 49 295 0.9 1.7 0.00 0.00 0.00 91 1014.9
20260505113454 49 205 1.7 1.7 0.00 0.00 0.00 92 1014.7
20260505112950 49 288 0.0 1.7 0.00 0.00 0.00 92 1014.8
20260505112447 48 182 0.9 1.7 0.00 0.00 0.00 92 1014.9
20260505111944 48 221 1.7 1.7 0.00 0.00 0.00 92 1014.9
20260505111443 48 237 1.7 1.7 0.00 0.00 0.00 91 1014.9
20260505110940 48 168 0.9 1.7 0.00 0.00 0.00 91 1014.9
20260505110438 48 205 0.9 1.7 0.00 0.00 0.00 91 1014.9
20260505101908 49 201 0.0 1.7 0.00 0.00 0.00 90 1014.8
20260505101403 49 204 0.0 1.7 0.00 0.00 0.00 89 1015.1
20260505100859 49 177 0.9 0.9 0.00 0.00 0.00 89 1015.1
20260505100355 49 200 0.9 1.7 0.00 0.00 0.00 90 1015.0
20260505095851 49 182 0.0 1.7 0.00 0.00 0.00 89 1015.0
20260505095349 49 199 1.7 1.7 0.00 0.00 0.00 89 1014.9
20260505094845 49 200 0.9 1.7 0.00 0.00 0.00 89 1014.9
20260505094342 49 196 0.0 0.9 0.00 0.00 0.00 89 1015.0
20260505093837 49 190 0.0 1.7 0.00 0.00 0.00 89 1015.0
20260505093335 49 193 0.9 1.7 0.00 0.00 0.00 88 1015.1
20260505092832 49 179 0.9 1.7 0.00 0.00 0.00 88 1014.9
20260505092331 50 162 0.9 0.9 0.00 0.00 0.00 88 1015.1